Location: Gerlach
(40.6516°N, 119.3568°W)
Time: 23:25:46
(UTC-07:00)

X-37B - Visible Passes

Search period start: 25 September 2022 00:00
Search period end: 05 October 2022 00:00
Orbit: 330 x 340 km, 45.0° (Epoch: 02 September)

Date Brightness Start Highest point End Pass type
(mag) Time Alt. Az. Time Alt. Az. Time Alt. Az.
25 Sep 0.8 05:11:18 55° SE 05:11:18 55° SE 05:14:00 10° ENE visible
26 Sep 0.4 05:30:59 45° WNW 05:31:37 63° NNW 05:34:28 10° ENE visible
27 Sep 4.1 04:19:23 10° ENE 04:19:23 10° ENE 04:19:26 10° ENE visible
27 Sep 1.3 05:50:36 20° WNW 05:52:11 38° N 05:54:54 10° ENE visible
28 Sep 3.3 04:38:58 18° ENE 04:38:58 18° ENE 04:39:54 10° ENE visible
28 Sep 1.6 06:10:12 10° WNW 06:12:49 31° N 06:15:27 10° ENE visible
29 Sep 2.2 04:58:33 28° NE 04:58:33 28° NE 05:00:20 10° ENE visible
30 Sep 1.6 05:18:09 31° N 05:18:14 31° N 05:20:52 10° ENE visible
01 Oct 1.5 05:37:45 24° NW 05:38:52 35° N 05:41:33 10° ENE visible
02 Oct 4.1 04:26:11 11° ENE 04:26:11 11° ENE 04:26:17 10° ENE visible
02 Oct 0.9 05:57:25 16° WNW 05:59:28 53° NNE 06:02:17 10° E visible
03 Oct 3.2 04:45:53 19° ENE 04:45:53 19° ENE 04:46:59 10° ENE visible
03 Oct 0.3 06:17:08 10° WNW 06:19:57 72° SSW 06:22:47 10° ESE visible
04 Oct 1.8 05:05:41 37° ENE 05:05:41 37° ENE 05:07:42 10° E visible
